GFSFLT2_925_spd_276.txt.gz
Wind_Speed
29 28 26 25 25 25 24 24 24 24 26 25 26 25 25 26 27 26 25 22 18 15 16 18 16 14 15 15 14 14 16 19
28 27 26 25 24 24 23 23 23 23 24 25 24 24 25 24 25 25 24 22 18 16 19 19 16 14 14 14 14 14 15 16
28 27 26 25 24 24 23 23 23 22 23 25 24 24 23 24 24 25 24 21 19 18 18 17 14 13 13 12 12 13 14 16
25 26 27 26 25 24 24 23 23 23 23 25 25 24 24 23 23 24 23 21 19 19 18 17 15 14 12 10 11 12 13 15
20 22 27 28 27 27 25 24 24 24 24 25 26 26 25 24 23 23 23 22 20 19 19 17 15 12 11 11 12 12 12 15
22 23 24 30 29 30 29 27 26 26 26 26 27 27 27 27 25 24 22 22 21 19 18 18 16 12 10 12 14 12 12 14
28 27 26 26 30 33 32 30 28 28 28 28 30 29 27 28 28 26 25 23 21 20 19 18 17 14 11 12 14 14 13 14
27 30 30 27 31 34 35 34 32 30 31 31 31 31 30 29 30 29 27 25 22 20 19 18 18 15 12 11 13 16 15 15
30 34 36 31 31 32 34 30 34 36 35 34 33 33 32 30 30 30 28 26 24 22 20 19 18 17 13 13 15 17 17 17
18 31 29 32 32 31 31 30 33 39 38 37 36 35 33 32 31 31 29 27 25 24 23 20 18 18 13 13 16 17 19 19
19 23 28 33 29 31 31 30 30 36 41 41 39 38 36 35 35 33 31 30 28 26 24 23 21 19 14 13 16 17 20 21
26 16 18 26 31 32 30 29 31 31 42 44 43 41 39 38 37 36 33 32 31 29 27 25 23 20 16 14 16 19 21 24
33 27 21 8 23 26 25 30 33 31 38 41 42 43 42 41 40 38 36 36 35 33 30 28 25 21 16 14 15 19 21 25
33 30 26 21 15 15 27 29 27 31 32 32 39 42 45 45 45 43 41 39 37 36 35 32 29 26 13 8 2 8 20 24
34 31 27 25 22 15 21 25 22 22 28 34 41 45 47 48 47 45 43 42 42 40 39 38 30 31 27 11 2 5 5 16
32 30 29 28 25 16 12 22 21 24 27 33 34 38 42 44 44 45 45 45 43 44 41 41 37 33 33 35 14 7 4 2
31 30 29 30 27 24 17 14 18 25 28 30 33 34 38 42 46 43 45 46 45 44 43 42 43 32 33 28 34 16 12 3
31 30 28 31 30 26 24 20 16 13 16 26 31 33 36 40 42 44 44 45 47 47 46 44 44 43 33 33 29 25 13 7
32 30 27 28 31 29 26 24 19 17 17 16 24 30 33 39 42 42 44 48 49 44 44 47 46 44 43 38 35 33 31 28
26 33 32 28 27 29 28 26 20 20 21 21 18 26 35 37 41 45 47 46 47 45 44 49 43 46 43 43 39 37 33 37

GFSFLT2_925_spd_279.txt.gz
Wind_Speed
23 22 21 20 20 20 20 21 22 23 24 23 23 24 25 26 25 22 21 19 18 18 18 16 15 15 14 13 12 15 13 14
18 19 20 20 19 19 20 20 21 22 22 22 22 22 24 25 24 22 20 17 16 17 18 16 15 15 14 12 11 12 11 11
11 17 18 19 20 19 19 19 19 21 21 21 21 19 22 24 21 21 19 17 16 19 18 16 15 14 13 12 12 8 10 9
10 13 14 17 18 20 20 20 19 20 22 22 17 19 19 20 22 21 19 16 16 18 16 14 13 12 11 11 8 10 9 9
10 12 15 16 15 19 19 19 19 20 22 23 20 18 19 18 21 21 20 18 16 16 15 12 11 10 10 9 9 9 8 8
16 15 15 18 14 20 18 20 21 21 22 23 24 18 18 15 17 20 21 20 19 17 14 14 11 9 8 10 9 8 8 7
15 23 24 22 20 21 19 20 22 22 25 25 24 22 20 17 17 18 17 22 22 22 19 16 14 10 9 9 10 9 9 8
14 19 26 29 33 29 23 24 22 23 25 28 29 26 24 21 18 21 18 20 20 21 21 20 17 13 11 10 11 10 10 10
21 18 21 28 30 33 33 27 24 22 24 31 31 31 29 27 24 25 21 20 20 20 21 20 19 17 13 12 11 12 12 12
25 17 18 25 32 26 27 25 27 25 24 27 34 34 33 30 28 29 26 24 20 17 18 17 16 16 14 12 13 13 14 14
26 22 16 11 26 32 30 29 29 31 33 35 30 34 35 32 28 27 30 27 26 21 17 17 15 15 14 12 12 13 15 14
26 24 23 19 11 26 30 30 27 31 37 36 31 31 34 33 29 27 30 28 26 26 23 18 14 15 14 12 11 13 14 16
28 27 27 25 23 16 21 27 30 28 33 36 36 38 36 37 30 30 32 27 28 31 27 22 17 15 11 10 11 13 16 17
28 27 26 25 25 20 18 15 25 32 30 33 35 38 42 40 39 29 29 26 26 29 30 20 20 18 14 11 6 13 17 19
27 26 27 24 26 24 19 13 20 20 30 33 35 38 41 44 39 34 30 31 28 31 33 28 22 20 23 13 6 8 9 16
26 25 26 25 25 23 21 14 18 12 25 30 32 34 35 40 40 37 35 33 31 30 30 31 27 24 19 28 15 3 6 4
27 26 26 26 26 22 20 20 17 19 15 21 30 26 32 33 39 39 39 39 40 35 33 37 31 29 27 18 29 20 12 8
27 28 28 28 27 25 23 22 22 22 21 17 13 24 26 29 31 36 40 37 38 40 40 35 38 34 31 29 25 27 25 17
28 28 28 29 28 26 24 23 21 20 19 20 20 17 23 30 35 35 35 38 38 39 33 36 39 36 37 33 31 32 28 26
24 28 28 27 27 26 25 24 21 18 19 21 19 17 18 15 30 33 37 40 38 34 34 35 35 38 38 38 34 33 31 30

GFSFLT2_925_spd_285.txt.gz
Wind_Speed
8 7 7 7 7 7 8 9 8 8 9 11 11 12 12 11 11 9 7 8 11 12 12 12 11 10 9 11 12 11 10 10
7 6 6 6 5 7 7 8 9 9 9 10 11 12 11 11 9 7 7 7 9 10 10 10 9 8 8 10 14 10 8 9
3 4 3 4 5 6 7 8 9 9 9 10 11 8 8 8 7 6 6 6 8 8 8 9 9 8 8 10 4 1 6 6
6 2 3 4 5 6 7 8 8 8 8 10 10 9 9 9 9 9 6 5 9 8 8 8 10 6 6 7 1 4 3 4
20 9 6 6 7 6 8 8 9 10 11 11 10 8 10 12 8 9 6 5 7 8 8 7 8 6 6 3 4 4 4 5
19 17 11 8 13 9 11 11 11 11 12 13 12 10 10 12 11 11 10 9 10 10 9 8 5 6 5 4 5 3 5 5
22 19 16 13 12 16 13 13 12 12 12 15 15 13 12 12 12 12 13 12 11 11 11 9 8 7 6 6 6 4 5 5
22 20 19 17 16 15 19 16 15 14 14 15 17 16 14 14 14 14 14 14 13 12 12 10 10 10 8 8 8 6 7 5
22 20 20 20 19 17 17 22 19 17 17 16 17 19 17 16 17 17 16 15 13 13 13 12 11 12 10 9 9 9 8 8
21 21 22 22 18 19 16 18 21 22 21 20 20 20 21 19 19 19 18 18 16 16 15 15 15 13 13 12 11 11 11 10
22 22 23 24 21 19 17 14 19 23 26 26 23 23 23 23 20 21 20 20 19 18 18 17 16 16 16 15 14 13 12 13
24 23 24 23 20 20 18 15 13 14 22 30 30 24 23 23 22 21 21 22 23 22 20 19 19 17 17 17 16 16 15 15
25 26 26 24 24 23 23 21 21 20 20 18 26 31 21 24 23 23 24 24 25 24 22 21 20 19 17 18 18 18 18 18
24 25 26 24 23 22 21 21 18 19 23 21 15 21 28 29 28 27 25 26 26 25 23 23 22 20 20 17 9 17 21 22
23 24 24 24 25 22 22 19 18 18 27 30 30 27 26 27 34 31 29 27 26 27 26 24 23 22 22 18 7 9 16 21
21 22 23 23 24 23 23 20 21 22 20 26 28 31 27 18 23 31 29 29 28 28 28 28 25 23 20 26 28 23 6 8
19 20 21 22 22 23 23 22 21 21 22 24 25 29 31 22 22 17 27 30 34 29 28 29 28 26 25 20 22 22 24 15
17 18 19 21 22 22 22 23 23 23 23 22 23 26 28 28 28 25 17 33 34 37 30 28 27 28 25 26 23 19 18 17
17 18 18 19 20 21 21 22 22 22 23 23 24 24 26 26 27 28 26 21 28 26 33 32 31 27 28 25 26 27 24 22
16 18 18 19 20 20 20 21 21 22 23 22 21 23 23 26 27 25 25 25 21 35 46 37 35 32 29 27 28 28 28 27

GFSFLT2_925_spd_291.txt.gz
Wind_Speed
13 13 10 8 8 8 8 8 7 7 7 8 9 8 7 8 6 5 5 6 7 8 8 8 8 7 9 12 15 16 11 9
17 7 9 12 7 7 6 6 6 6 6 6 7 7 6 6 4 4 3 5 6 6 6 5 5 7 11 11 13 13 11 8
24 20 16 6 10 5 4 4 4 4 4 4 6 6 5 4 3 2 2 3 4 4 4 4 5 8 12 10 8 8 7 10
29 24 21 18 8 8 7 5 2 2 2 2 6 6 3 2 3 3 2 2 3 3 4 4 6 9 8 2 2 4 17 12
29 28 24 20 15 10 5 9 8 2 1 1 5 6 11 6 9 8 6 5 5 6 6 7 8 8 6 1 0 3 17 10
29 30 27 23 22 19 14 8 5 13 12 6 5 7 13 11 10 12 9 7 7 8 8 6 8 9 9 7 5 5 9 12
28 30 29 25 27 26 22 17 11 7 10 18 12 10 12 14 14 14 12 10 11 10 10 10 9 7 7 8 8 5 11 11
27 31 28 27 27 26 27 27 21 18 13 10 14 16 15 11 17 15 17 17 17 17 15 14 16 14 13 14 11 7 9 7
27 31 29 28 27 28 27 27 29 22 21 20 14 12 19 21 16 18 16 18 17 25 21 19 18 21 18 17 16 15 14 13
28 30 30 30 28 28 27 25 25 23 28 25 26 22 17 16 21 19 17 20 22 19 18 16 15 15 17 17 20 20 18 18
28 29 29 30 29 29 28 27 31 20 30 33 30 26 21 16 18 20 20 21 20 25 23 23 21 20 20 21 21 22 22 22
28 27 30 31 30 31 28 30 30 24 30 33 34 32 24 24 15 15 19 22 21 19 22 25 25 24 22 25 23 22 22 24
26 24 28 34 32 31 31 31 29 28 30 28 29 32 30 25 22 13 29 35 22 26 29 26 27 26 25 26 26 23 32 30
24 24 24 28 29 29 25 24 24 27 28 28 24 27 28 28 27 22 11 21 31 33 31 29 28 27 26 22 3 19 22 31
20 22 21 25 27 27 26 24 25 29 31 30 30 25 26 24 30 28 26 16 16 22 29 29 26 33 33 17 2 5 7 23
20 21 18 22 25 26 25 27 23 26 26 25 26 29 25 24 26 29 25 24 20 18 18 30 31 34 35 36 32 10 4 3
17 18 17 20 23 23 23 25 24 24 25 25 26 27 28 27 29 27 26 23 25 24 20 15 27 30 28 22 23 30 28 11
15 16 18 18 21 22 21 23 23 24 26 26 26 27 29 28 30 29 28 26 24 24 26 20 16 27 37 41 28 17 10 11
12 13 16 18 21 22 19 21 20 21 23 24 25 26 28 30 30 27 30 26 24 21 23 22 21 18 20 33 46 29 22 20
9 9 11 14 17 17 16 20 20 19 20 21 22 23 23 26 26 24 28 23 23 25 29 26 24 19 16 11 24 35 24 30